This is the latest recevied weather packets stored in our database for station/object DH1NAI-6. If no packets are shown the sender has not sent any weather packets the latest 10 day(s).
| Time | Temp. | Humidity | Pressure | Rain* | Wind** | Luminosity | Snow |
|---|---|---|---|---|---|---|---|
| 1787470593 | 13.89° C | 84% | 1020.8 hPa | 0 mm | - | 50 W/m² | - |
| 1787469992 | 13.33° C | 87% | 1020.5 hPa | 0 mm | - | 47 W/m² | - |
| 1787469383 | 12.22° C | 95% | 1020.7 hPa | 0 mm | - | 26 W/m² | - |
| 1787468759 | 11.67° C | 99% | 1020.6 hPa | 0 mm | - | 48 W/m² | - |
| 1787468135 | 11.11° C | 99% | 1020.6 hPa | 0 mm | - | 33 W/m² | - |
| 1787467527 | 11.11° C | 99% | 1020.3 hPa | 0 mm | - | 47 W/m² | - |
| 1787466920 | 10.56° C | 99% | 1020.5 hPa | 0 mm | - | 28 W/m² | - |
| 1787466311 | 10° C | 99% | 1020.3 hPa | 0 mm | - | 26 W/m² | - |
| 1787465704 | 9.44° C | 99% | 1020.4 hPa | 0 mm | - | 18 W/m² | - |
| 1787465095 | 8.33° C | 99% | 1020.1 hPa | 0 mm | - | 15 W/m² | - |
| 1787464488 | 8.33° C | 99% | 1020.2 hPa | 0 mm | - | 13 W/m² | - |
| 1787463873 | 7.78° C | 99% | 1020 hPa | 0 mm | - | 12 W/m² | - |
| 1787463272 | 7.22° C | 99% | 1020.1 hPa | 0 mm | - | 12 W/m² | - |
| 1787462663 | 5° C | 99% | 1020.1 hPa | 0 mm | - | 11 W/m² | - |
| 1787462039 | 3.89° C | 99% | 1019.9 hPa | 0 mm | - | 8 W/m² | - |
| 1787461415 | 3.33° C | 99% | 1019.6 hPa | 0 mm | - | 6 W/m² | - |
| 1787460807 | 2.78° C | 99% | 1019.8 hPa | 0 mm | - | 5 W/m² | - |
| 1787460200 | 2.78° C | 99% | 1019.9 hPa | 0 mm | - | 3 W/m² | - |
| 1787459591 | 2.22° C | 99% | 1019.6 hPa | 0 mm | - | 2 W/m² | - |
| 1787458984 | 2.78° C | 99% | 1019.8 hPa | 0 mm | - | 1 W/m² | - |
| 1787458375 | 2.78° C | 99% | 1019.5 hPa | 0 mm | - | 0 W/m² | - |
| 1787457768 | 2.78° C | 99% | 1019.3 hPa | 0 mm | - | 0 W/m² | - |
| 1787457153 | 2.78° C | 99% | 1019.3 hPa | 0 mm | - | 0 W/m² | - |
| 1787456552 | 2.78° C | 99% | 1019.5 hPa | 0 mm | - | 0 W/m² | - |
| 1787455943 | 2.78° C | 99% | 1019.4 hPa | 0 mm | - | 0 W/m² | - |
* Rain latest hour (hover to see other rain measurements)
** Current wind speed in m/s (hover to see current wind gust speed)